sat.trackr.live / text

‹ back to catalog

TIANPING 3B-01

NORAD 61615 · 2024-189B

PAYLOAD ACTIVE UNKNOWN

§ Identity

Operator
Country
PRC
Launch date
2024-10-22
Launch site
TAISC
Launch vehicle
Mass (kg)
RCS (m²)

External: N2YO · Heavens-Above · Gunter

§ Orbital elements

Epoch: 2026-09-22T23:23:35.304288Z

Period
95.94 min
Inclination
97.5113°
Eccentricity
0.0002512
Mean motion
15.01003631 rev/d
Perigee alt
562.1 km
Apogee alt
565.5 km
Semi-major
6,941.9 km
B*
1.1581e-4
RAAN
282.9281°
Arg perigee
48.7024°
Mean anomaly
311.4417°
Rev number
10,511

§ Raw data

TIANPING 3B-011 61615U 24189B   26265.97471417  .00001421  00000+0  11581-3 0  99902 61615  97.5113 282.9281 0002512  48.7024 311.4417 15.01003631105113

JSON: /api/v1/satellites/61615 · /tle

For live sub-satellite position, see the globe view (requires WebGL).

§ Visibility from observer

Set your observer location to see the next 7 days of passes ≥ 10°. The values pass through the URL so the page stays shareable.

No JS? Fill the form by hand. The geolocation button needs JavaScript.